51,2013-07-17 19:28:16,1374089296,55.20787,-10.10259,2,3,2013-07-17 19:27:00,1374089220,18.3,1,15.8,0,4095,55.202,-10.0746,40,36
52,2013-07-17 19:55:21,1374090921,55.20787,-10.10259,3,2,2013-07-17 19:54:00,1374090840,14.82,6,15.8,0,4095,55.2006,-10.073,12,36
53,2013-07-17 20:06:20,1374091580,55.18217,-10.16442,2,3,2013-07-17 20:00:00,1374091200,14.97,6,15.8,0,4095,55.2006,-10.073,12,36
54,2013-07-17 21:06:12,1374095172,55.20787,-10.10259,2,2,2013-07-17 21:00:00,1374094800,15.12,4,15.8,30,0,55.2082,-10.0622,18,32
55,2013-07-17 22:06:23,1374098783,55.20787,-10.10259,3,7,2013-07-17 22:00:00,1374098400,15.11,4,15.8,30,60,55.2082,-10.0622,18,32
56,2013-07-17 23:06:09,1374102369,55.1686,-9.96798,3,1,2013-07-17 23:00:00,1374102000,15.1,5,15.8,34,120,55.2082,-10.0622,18,32
57,2013-07-18 00:06:13,1374105973,55.16348,-10.02979,2,6,2013-07-18 00:00:00,1374105600,15.1,4,15.8,30,0,55.2058,-10.0158,64,36
58,2013-07-18 01:07:21,1374109641,55.50701,-5.45836,305,3,2013-07-18 01:00:00,1374109200,15.09,4,15.8,30,60,55.2058,-10.0158,64,36
59,2013-07-18 02:06:11,1374113171,55.19766,-9.97886,2,1,2013-07-18 02:00:00,1374112800,15.1,4,15.8,83,120,55.2058,-10.0158,64,36
60,2013-07-18 03:06:20,1374116780,55.18737,-10.10259,2,1,2013-07-18 03:00:00,1374116400,15.11,4,15.8,30,0,55.201,-10.0038,96,32
61,2013-07-18 04:06:13,1374120373,55.19253,-10.04073,2,6,2013-07-18 04:00:00,1374120000,15.12,5,15.8,30,60,55.201,-10.0038,96,32
62,2013-07-18 05:07:10,1374124030,55.21816,-9.97886,3,2,2013-07-18 05:00:00,1374123600,15.11,5,15.8,30,120,55.201,-10.0038,96,32
63,2013-07-18 06:06:14,1374127574,55.21816,-9.97886,2,1,2013-07-18 06:00:00,1374127200,15.12,3,15.8,71,0,55.2058,-10.0142,62,36
64,2013-07-18 07:06:12,1374131172,55.21303,-10.04073,2,2,2013-07-18 07:00:00,1374130800,15.13,4,15.8,30,60,55.2058,-10.0142,62,36
65,2013-07-18 08:06:12,1374134772,55.19253,-10.04073,6,1,2013-07-18 08:00:00,1374134400,15.16,4,15.8,30,120,55.2058,-10.0142,62,36
66,2013-07-18 09:06:15,1374138375,55.21303,-10.04073,3,31,2013-07-18 09:00:00,1374138000,15.19,3,15.8,30,0,55.2196,-10.0136,32,0
67,2013-07-18 10:06:14,1374141974,55.20159,-12.80148,193,3,2013-07-18 10:00:00,1374141600,15.23,4,15.8,30,60,55.2196,-10.0136,32,0
68,2013-07-18 11:06:19,1374145579,55.21816,-9.97886,2,2,2013-07-18 11:00:00,1374145200,15.27,3,15.8,30,120,55.2196,-10.0136,32,0
69,2013-07-18 12:06:12,1374149172,55.24153,-10.75488,96,5,2013-07-18 12:00:00,1374148800,15.29,4,15.8,30,0,55.23,-9.9812,32,36
70,2013-07-18 13:06:14,1374152774,55.21816,-9.97886,4,2,2013-07-18 13:00:00,1374152400,15.31,3,15.8,30,60,55.23,-9.9812,32,36
71,2013-07-18 14:06:44,1374156404,55.23173,-10.17551,71,2,2013-07-18 14:00:00,1374156000,15.35,3,15.8,30,120,55.23,-9.9812,32,36
72,2013-07-18 15:06:15,1374159975,55.1686,-9.96798,6,7,2013-07-18 15:00:00,1374159600,15.41,4,15.8,43,0,55.2266,-9.96259999999998,32,36
73,2013-07-18 16:06:11,1374163571,55.10288,-7.7313,178,3,2013-07-18 16:00:00,1374163200,15.48,4,15.8,30,60,55.2266,-9.96259999999998,32,36
74,2013-07-18 17:06:55,1374167215,55.2677,-9.98976,6,1,2013-07-18 17:00:00,1374166800,15.42,4,15.8,30,120,55.2266,-9.96259999999998,32,36
75,2013-07-18 18:06:37,1374170797,55.21303,-10.04073,4,2,2013-07-18 18:00:00,1374170400,15.51,4,15.8,54,0,55.227,-9.98099999999999,32,36
76,2013-07-18 19:06:27,1374174387,55.24723,-9.98976,5,2,2013-07-18 19:00:00,1374174000,15.48,4,15.8,36,60,55.227,-9.98099999999999,32,36
77,2013-07-18 20:06:18,1374177978,55.24723,-9.98976,12,2,2013-07-18 20:00:00,1374177600,15.52,4,15.8,30,120,55.227,-9.98099999999999,32,36
78,2013-07-18 21:06:21,1374181581,55.21816,-9.97886,3,4,2013-07-18 21:00:00,1374181200,15.5,4,15.8,30,0,55.2418,-9.99339999999998,34,36
79,2013-07-18 22:06:15,1374185175,55.21816,-9.97886,6,7,2013-07-18 22:00:00,1374184800,15.5,3,15.8,30,60,55.2418,-9.99339999999998,34,36
80,2013-07-18 23:06:12,1374188772,55.27281,-9.92779,2,7,2013-07-18 23:00:00,1374188400,15.52,3,15.8,30,120,55.2418,-9.99339999999998,34,36
81,2013-07-19 00:06:12,1374192372,55.21816,-9.97886,4,1,2013-07-19 00:00:00,1374192000,15.47,3,15.8,30,0,55.2612,-9.96519999999998,32,36
82,2013-07-19 01:06:14,1374195974,55.48648,-5.89963,265,4,2013-07-19 01:00:00,1374195600,15.45,3,15.8,30,60,55.2612,-9.96519999999998,32,36
83,2013-07-19 02:06:19,1374199579,55.21816,-9.97886,6,1,2013-07-19 02:00:00,1374199200,15.42,3,15.8,30,120,55.2612,-9.96519999999998,32,36
84,2013-07-19 03:06:20,1374203180,55.22326,-9.91696,10,1,2013-07-19 03:00:00,1374202800,15.41,4,15.8,30,0,55.2616,-9.93899999999999,62,36
85,2013-07-19 04:06:12,1374206772,55.27281,-9.92779,3,6,2013-07-19 04:00:00,1374206400,15.38,3,15.8,30,60,55.2616,-9.93899999999999,62,36
86,2013-07-19 05:06:14,1374210374,55.2677,-9.98976,4,1,2013-07-19 05:00:00,1374210000,15.35,4,15.8,30,120,55.2616,-9.93899999999999,62,36
87,2013-07-19 06:06:21,1374213981,55.22326,-9.91696,3,1,2013-07-19 06:00:00,1374213600,15.33,4,15.8,30,0,55.2576,-9.94659999999999,50,36
88,2013-07-19 07:06:13,1374217573,55.24723,-9.98976,2,1,2013-07-19 07:00:00,1374217200,15.32,4,15.8,30,60,55.2576,-9.94659999999999,50,36
89,2013-07-19 08:06:11,1374221171,55.29679,-10.00068,11,1,2013-07-19 08:00:00,1374220800,15.3,4,15.8,30,120,55.2576,-9.94659999999999,50,36
90,2013-07-19 09:06:12,1374224772,55.25234,-9.92779,2,10,2013-07-19 09:00:00,1374224400,15.35,4,15.8,30,0,55.2614,-9.9682,140,36
91,2013-07-19 10:06:13,1374228373,55.14867,-14.99616,326,1,2013-07-19 10:00:00,1374228000,15.39,4,15.8,30,60,55.2614,-9.9682,140,36
92,2013-07-19 11:07:25,1374232045,55.3019,-9.93865,9,2,2013-07-19 11:00:00,1374231600,15.43,4,15.8,30,120,55.2614,-9.9682,140,36
93,2013-07-19 12:06:21,1374235581,55.41364,-12.80987,192,2,2013-07-19 12:00:00,1374235200,15.47,5,15.8,83,0,55.273,-9.95699999999999,80,36
94,2013-07-19 13:06:16,1374239176,55.2677,-9.98976,1,2,2013-07-19 13:00:00,1374238800,15.55,4,15.8,30,60,55.273,-9.95699999999999,80,36
95,2013-07-19 14:06:28,1374242788,55.39783,-12.67268,194,2,2013-07-19 14:00:00,1374242400,15.66,4,15.8,30,120,55.273,-9.95699999999999,80,36
96,2013-07-19 15:06:11,1374246371,55.27281,-9.92779,2,8,2013-07-19 15:00:00,1374246000,15.72,4,15.8,30,0,55.2734,-9.94319999999999,172,36
97,2013-07-19 16:06:14,1374249974,55.22371,-9.15234,82,2,2013-07-19 16:00:00,1374249600,15.79,4,15.8,30,60,55.2734,-9.94319999999999,172,36
98,2013-07-19 17:06:15,1374253575,55.24723,-9.98976,2,2,2013-07-19 17:00:00,1374253200,15.79,4,15.8,30,120,55.2734,-9.94319999999999,172,36
99,2013-07-19 18:06:11,1374257171,55.29188,-8.91371,97,7,2013-07-19 18:00:00,1374256800,15.81,4,15.8,30,0,55.2718,-9.9546,90,36
100,2013-07-19 19:06:33,1374260793,55.29679,-10.00068,3,2,2013-07-19 19:00:00,1374260400,15.77,4,15.8,30,60,55.2718,-9.9546,90,36
101,2013-07-19 20:06:18,1374264378,55.25234,-9.92779,14,4,2013-07-19 20:00:00,1374264000,15.75,4,15.8,31,120,55.2718,-9.9546,90,36
102,2013-07-19 21:06:37,1374267997,55.27281,-9.92779,2,2,2013-07-19 21:00:00,1374267600,15.72,5,15.8,30,0,55.283,-9.96039999999999,234,32
103,2013-07-19 22:06:15,1374271575,55.27281,-9.92779,4,5,2013-07-19 22:00:00,1374271200,15.71,5,15.8,36,60,55.283,-9.96039999999999,234,32
104,2013-07-19 23:06:30,1374275190,55.35145,-9.94954,8,2,2013-07-19 23:00:00,1374274800,15.71,4,15.8,30,120,55.283,-9.96039999999999,234,32
105,2013-07-20 00:06:14,1374278774,55.27281,-9.92779,2,2,2013-07-20 00:00:00,1374278400,15.71,4,15.8,30,0,55.2918,-9.94059999999999,120,32
106,2013-07-20 01:06:45,1374282405,55.41797,-7.6656,157,2,2013-07-20 01:00:00,1374282000,15.73,4,15.8,30,60,55.2918,-9.94059999999999,120,32
107,2013-07-20 02:06:15,1374285975,55.27281,-9.92779,3,1,2013-07-20 02:00:00,1374285600,15.73,4,15.8,43,120,55.2918,-9.94059999999999,120,32
108,2013-07-20 03:06:13,1374289573,55.3019,-9.93865,8,5,2013-07-20 03:00:00,1374289200,15.72,4,15.8,30,0,55.294,-9.91299999999998,110,36
109,2013-07-20 04:06:15,1374293175,55.27788,-9.86581,2,1,2013-07-20 04:00:00,1374292800,15.71,4,15.8,30,60,55.294,-9.91299999999998,110,36
110,2013-07-20 05:06:17,1374296777,55.2677,-9.98976,2,3,2013-07-20 05:00:00,1374296400,15.72,4,15.6,30,120,55.294,-9.91299999999998,110,36
111,2013-07-20 06:06:19,1374300379,55.27281,-9.92779,2,0,2013-07-20 06:00:00,1374300000,15.73,3,15.6,30,0,55.2886,-9.9118,80,36
112,2013-07-20 07:06:19,1374303979,55.25234,-9.92779,14,1,2013-07-20 07:00:00,1374303600,15.79,4,15.6,30,60,55.2886,-9.9118,80,36
113,2013-07-20 08:06:17,1374307577,55.30698,-9.8766,2,1,2013-07-20 08:00:00,1374307200,15.84,4,15.6,30,120,55.2886,-9.9118,80,36
114,2013-07-20 09:06:13,1374311173,55.29679,-10.00068,2,0,2013-07-20 09:00:00,1374310800,16.03,4,15.6,30,0,55.295,-9.93219999999999,94,36
115,2013-07-20 10:06:13,1374314773,55.27281,-9.92779,8,0,2013-07-20 10:00:00,1374314400,16.15,4,15.6,30,60,55.295,-9.93219999999999,94,36
116,2013-07-20 11:06:13,1374318373,55.3019,-9.93865,1,2,2013-07-20 11:00:00,1374318000,16.54,4,15.6,30,120,55.295,-9.93219999999999,94,36
117,2013-07-20 12:06:13,1374321973,55.32235,-9.93865,12,3,2013-07-20 12:00:00,1374321600,16.48,4,15.6,30,0,55.2998,-9.9246,62,36
118,2013-07-20 13:06:21,1374325581,55.30698,-9.8766,5,2,2013-07-20 13:00:00,1374325200,16.28,3,15.6,30,60,55.2998,-9.9246,62,36
119,2013-07-20 14:06:22,1374329182,55.48877,-14.38925,11,2,2013-07-20 14:00:00,1374328800,16.4,4,15.6,30,120,55.2998,-9.9246,62,36
120,2013-07-20 15:06:20,1374332780,55.30698,-9.8766,3,2,2013-07-20 15:00:00,1374332400,16.57,4,15.6,30,0,55.3018,-9.9008,66,36
121,2013-07-20 16:06:13,1374336373,55.3764,-11.37182,115,4,2013-07-20 16:00:00,1374336000,16.87,4,15.6,30,60,55.3018,-9.9008,66,36
122,2013-07-20 17:06:22,1374339982,55.3019,-9.93865,2,2,2013-07-20 17:00:00,1374339600,17.03,3,15.6,30,120,55.3018,-9.9008,66,36
123,2013-07-20 18:06:15,1374343575,55.22371,-9.15234,161,2,2013-07-20 18:00:00,1374343200,17.08,3,15.6,30,0,55.2962,-9.90699999999998,32,36
124,2013-07-20 19:06:13,1374347173,55.27788,-9.86581,2,4,2013-07-20 19:00:00,1374346800,17.26,4,15.6,30,60,55.2962,-9.90699999999998,32,36
125,2013-07-20 20:06:12,1374350772,55.24425,-8.45923,114,6,2013-07-20 20:00:00,1374350400,17.13,3,15.6,30,120,55.2962,-9.90699999999998,32,36
126,2013-07-20 21:06:11,1374354371,55.3019,-9.93865,2,2,2013-07-20 21:00:00,1374354000,17.11,4,15.6,30,0,55.3086,-9.94039999999998,32,36
127,2013-07-20 22:06:13,1374357973,55.29679,-10.00068,3,5,2013-07-20 22:00:00,1374357600,17.08,3,15.6,30,60,55.3086,-9.94039999999998,32,36
128,2013-07-20 23:06:16,1374361576,55.30698,-9.8766,2,1,2013-07-20 23:00:00,1374361200,17.09,3,15.6,30,120,55.3086,-9.94039999999998,32,36
129,2013-07-21 00:06:13,1374365173,55.3019,-9.93865,2,6,2013-07-21 00:00:00,1374364800,17.07,3,15.6,30,0,55.3264,-9.9228,32,32
130,2013-07-21 01:06:13,1374368773,55.35145,-9.94954,23,2,2013-07-21 01:00:00,1374368400,16.94,3,15.6,30,60,55.3264,-9.9228,32,32
131,2013-07-21 02:06:13,1374372373,55.30698,-9.8766,2,5,2013-07-21 02:00:00,1374372000,16.93,3,15.6,30,120,55.3264,-9.9228,32,32
132,2013-07-21 03:06:19,1374375979,55.44108,-7.28968,178,2,2013-07-21 03:00:00,1374375600,16.86,3,15.6,30,0,55.3312,-9.8802,62,32
133,2013-07-21 04:06:21,1374379581,55.32743,-9.8766,2,0,2013-07-21 04:00:00,1374379200,16.76,3,15.6,30,60,55.3312,-9.8802,62,32
134,2013-07-21 05:06:11,1374383171,55.31204,-9.81452,3,6,2013-07-21 05:00:00,1374382800,16.56,4,15.6,30,120,55.3312,-9.8802,62,32
135,2013-07-21 06:06:12,1374386772,55.31204,-9.81452,2,1,2013-07-21 06:00:00,1374386400,16.46,5,15.6,30,0,55.3164,-9.869,84,36
136,2013-07-21 07:06:18,1374390378,55.3019,-9.93865,3,1,2013-07-21 07:00:00,1374390000,16.48,4,15.6,30,60,55.3164,-9.869,84,36
137,2013-07-21 08:06:14,1374393974,55.3019,-9.93865,3,0,2013-07-21 08:00:00,1374393600,16.43,4,15.6,30,120,55.3164,-9.869,84,36
138,2013-07-21 09:06:14,1374397574,55.3019,-9.93865,4,13,2013-07-21 09:00:00,1374397200,16.46,4,15.6,30,0,55.315,-9.9134,62,36
139,2013-07-21 10:06:16,1374401176,55.35145,-9.94954,6,1,2013-07-21 10:00:00,1374400800,16.56,4,15.6,30,60,55.315,-9.9134,62,36
140,2013-07-21 11:06:18,1374404778,55.30698,-9.8766,2,2,2013-07-21 11:00:00,1374404400,16.68,4,15.6,30,120,55.315,-9.9134,62,36
141,2013-07-21 12:06:37,1374408397,55.35145,-9.94954,4,11,2013-07-21 12:00:00,1374408000,16.67,4,15.6,30,0,55.339,-9.9408,60,36
142,2013-07-21 13:06:21,1374411981,55.35145,-9.94954,5,3,2013-07-21 13:00:00,1374411600,16.83,4,15.6,50,60,55.339,-9.9408,60,36
143,2013-07-21 14:07:00,1374415620,55.60994,-14.31355,289,2,2013-07-21 14:00:00,1374415200,16.96,4,15.6,30,120,55.339,-9.9408,60,36
144,2013-07-21 15:06:13,1374419173,55.35145,-9.94954,2,5,2013-07-21 15:00:00,1374418800,17.03,4,15.6,59,0,55.3608,-9.8914,34,32
145,2013-07-21 16:06:18,1374422778,55.5467,-14.15929,287,3,2013-07-21 16:00:00,1374422400,16.96,4,15.6,30,60,55.3608,-9.8914,34,32
146,2013-07-21 18:06:45,1374430005,55.37503,-10.72821,83,1,2013-07-21 17:00:00,1374426000,16.91,5,15.6,30,120,55.3608,-9.8914,34,32
147,2013-07-21 18:06:55,1374430015,55.37503,-10.72821,85,2,2013-07-21 18:00:00,1374429600,16.81,5,15.6,255,0,55.3484,-9.85339999999999,118,36
148,2013-07-21 19:06:46,1374433606,55.3616,-9.82528,4,2,2013-07-21 19:00:00,1374433200,16.81,4,15.6,52,60,55.3484,-9.85339999999999,118,36
149,2013-07-21 20:06:14,1374437174,55.37503,-10.72821,106,3,2013-07-21 20:00:00,1374436800,16.74,3,15.6,44,120,55.3484,-9.85339999999999,118,36
150,2013-07-21 21:06:28,1374440788,55.35145,-9.94954,4,1,2013-07-21 21:00:00,1374440400,16.78,4,15.6,30,0,55.3376,-9.88899999999998,78,36
151,2013-07-21 22:06:15,1374444375,55.3019,-9.93865,15,3,2013-07-21 22:00:00,1374444000,16.79,4,15.6,30,60,55.3376,-9.88899999999998,78,36
152,2013-07-21 23:06:12,1374447972,55.35654,-9.88742,3,6,2013-07-21 23:00:00,1374447600,16.69,4,15.6,30,120,55.3376,-9.88899999999998,78,36
153,2013-07-22 00:06:12,1374451572,55.35654,-9.88742,2,5,2013-07-22 00:00:00,1374451200,16.63,4,15.6,30,0,55.3646,-9.92740000000001,60,36
154,2013-07-22 01:06:09,1374455169,55.36508,-10.14685,67,2,2013-07-22 01:00:00,1374454800,16.63,4,15.6,30,60,55.3646,-9.92740000000001,60,36
155,2013-07-22 02:06:12,1374458772,55.35654,-9.88742,5,1,2013-07-22 02:00:00,1374458400,16.63,5,15.6,30,120,55.3646,-9.92740000000001,60,36
156,2013-07-22 03:06:13,1374462373,55.39112,-8.93326,120,5,2013-07-22 03:00:00,1374462000,16.62,4,15.6,30,0,55.3874,-9.8828,94,32
157,2013-07-22 04:06:13,1374465973,55.41114,-9.83605,3,2,2013-07-22 04:00:00,1374465600,16.61,5,15.6,30,60,55.3874,-9.8828,94,32
158,2013-07-22 05:06:18,1374469578,55.40607,-9.89826,8,1,2013-07-22 05:00:00,1374469200,16.64,5,15.6,30,120,55.3874,-9.8828,94,32
159,2013-07-22 06:06:30,1374473190,55.40607,-9.89826,4,1,2013-07-22 06:00:00,1374472800,16.61,4,15.6,30,0,55.3746,-9.83839999999998,34,36
160,2013-07-22 07:06:29,1374476789,55.35654,-9.88742,4,1,2013-07-22 07:00:00,1374476400,16.6,4,15.6,30,60,55.3746,-9.83839999999998,34,36
161,2013-07-22 08:06:12,1374480372,55.41114,-9.83605,7,1,2013-07-22 08:00:00,1374480000,16.65,4,15.6,30,120,55.3746,-9.83839999999998,34,36
162,2013-07-22 09:07:17,1374484037,55.33248,-9.81452,17,0,2013-07-22 09:00:00,1374483600,16.76,5,15.6,30,0,55.3596,-9.85399999999998,62,36
163,2013-07-22 10:06:19,1374487579,55.3616,-9.82528,1,0,2013-07-22 10:00:00,1374487200,16.86,4,15.6,76,60,55.3596,-9.85399999999998,62,36
164,2013-07-22 11:06:20,1374491180,55.32743,-9.8766,7,2,2013-07-22 11:00:00,1374490800,16.82,3,15.6,30,120,55.3596,-9.85399999999998,62,36
165,2013-07-22 12:06:15,1374494775,55.3616,-9.82528,2,3,2013-07-22 12:00:00,1374494400,17,3,15.6,30,0,55.3666,-9.9008,62,36
166,2013-07-22 13:06:12,1374498372,55.38057,-9.96044,1,2,2013-07-22 13:00:00,1374498000,17.15,4,15.6,30,60,55.3666,-9.9008,62,36
167,2013-07-22 14:06:29,1374501989,55.38057,-9.96044,3,4,2013-07-22 14:00:00,1374501600,17.11,4,15.6,30,120,55.3666,-9.9008,62,36
168,2013-07-22 15:06:29,1374505589,55.3616,-9.82528,2,3,2013-07-22 15:00:00,1374505200,17.2,4,15.6,30,0,55.3964,-9.88819999999998,36,36
169,2013-07-22 16:06:13,1374509173,55.38704,-9.76311,4,5,2013-07-22 16:00:00,1374508800,17.15,3,15.6,30,60,55.3964,-9.88819999999998,36,36
170,2013-07-22 17:06:17,1374512777,55.40607,-9.89826,2,3,2013-07-22 17:00:00,1374512400,17.14,3,15.6,30,120,55.3964,-9.88819999999998,36,36
171,2013-07-22 18:06:11,1374516371,55.41114,-9.83605,10,3,2013-07-22 18:00:00,1374516000,17.14,5,15.6,30,0,55.4018,-9.83359999999999,62,36
172,2013-07-22 19:06:14,1374519974,55.41114,-9.83605,3,3,2013-07-22 19:00:00,1374519600,17.06,4,15.6,30,60,55.4018,-9.83359999999999,62,36
173,2013-07-22 20:06:27,1374523587,55.39348,-10.40644,149,2,2013-07-22 20:00:00,1374523200,17.05,4,15.6,30,120,55.4018,-9.83359999999999,62,36
174,2013-07-22 21:06:27,1374527187,55.41618,-9.77382,2,4,2013-07-22 21:00:00,1374526800,16.99,3,15.6,30,0,55.3956,-9.834,40,32
175,2013-07-22 22:07:04,1374530824,55.3616,-9.82528,5,4,2013-07-22 22:00:00,1374530400,16.92,4,15.6,30,60,55.3956,-9.834,40,32
176,2013-07-22 23:06:42,1374534402,55.32743,-9.8766,8,1,2013-07-22 23:00:00,1374534000,16.84,3,15.6,64,120,55.3956,-9.834,40,32
177,2013-07-23 00:06:15,1374537975,55.3616,-9.82528,4,2,2013-07-23 00:00:00,1374537600,16.88,3,15.6,41,0,55.3968,-9.86359999999999,32,36
178,2013-07-23 01:06:13,1374541573,55.31439,-11.80428,144,1,2013-07-23 01:00:00,1374541200,16.73,4,15.6,30,60,55.3968,-9.86359999999999,32,36
179,2013-07-23 02:06:14,1374545174,55.38567,-9.89826,3,2,2013-07-23 02:00:00,1374544800,16.74,3,15.6,30,120,55.3968,-9.86359999999999,32,36
180,2013-07-23 03:06:12,1374548772,55.47453,-8.89042,98,5,2013-07-23 03:00:00,1374548400,16.69,3,15.6,30,0,55.4178,-9.8554,32,36
181,2013-07-23 04:06:14,1374552374,55.41114,-9.83605,2,4,2013-07-23 04:00:00,1374552000,16.74,3,15.6,30,60,55.4178,-9.8554,32,36
182,2013-07-23 05:06:26,1374555986,55.46331,-8.6308,102,1,2013-07-23 05:00:00,1374555600,16.72,3,15.6,30,120,55.4178,-9.8554,32,36
183,2013-07-23 06:06:19,1374559579,55.41114,-9.83605,2,1,2013-07-23 06:00:00,1374559200,16.69,3,15.6,30,0,55.4248,-9.81359999999998,30,36
184,2013-07-23 07:06:38,1374563198,55.51837,-7.81652,169,2,2013-07-23 07:00:00,1374562800,16.68,3,15.6,30,60,55.4248,-9.81359999999998,30,36
184,2013-07-23 07:07:29,1374563249,55.51025,-7.94201,143,0,2013-07-23 07:00:00,1374562800,16.68,3,15.6,30,60,55.4248,-9.81359999999998,30,36
185,2013-07-23 08:06:12,1374566772,55.41618,-9.77382,1,3,2013-07-23 08:00:00,1374566400,16.67,3,15.6,87,120,55.4248,-9.81359999999998,30,36
186,2013-07-23 09:06:37,1374570397,55.43522,-9.90912,4,1,2013-07-23 09:00:00,1374570000,16.67,3,15.6,30,0,55.4208,-9.80939999999998,32,36
187,2013-07-23 10:06:13,1374573973,55.41114,-9.83605,5,1,2013-07-23 10:00:00,1374573600,16.71,3,15.6,36,60,55.4208,-9.80939999999998,32,36
188,2013-07-23 11:06:14,1374577574,55.40607,-9.89826,2,18,2013-07-23 11:00:00,1374577200,16.84,3,15.6,30,120,55.4208,-9.80939999999998,32,36
189,2013-07-23 12:06:28,1374581188,55.40607,-9.89826,2,2,2013-07-23 12:00:00,1374580800,16.76,3,15.6,30,0,55.4116,-9.84,48,36
190,2013-07-23 13:06:22,1374584782,55.44029,-9.84685,8,3,2013-07-23 13:00:00,1374584400,16.95,4,15.6,30,60,55.4116,-9.84,48,36
191,2013-07-23 14:06:13,1374588373,55.41114,-9.83605,3,2,2013-07-23 14:00:00,1374588000,17.04,3,15.6,30,120,55.4116,-9.84,48,36
192,2013-07-23 15:06:14,1374591974,55.40607,-9.89826,3,5,2013-07-23 15:00:00,1374591600,16.89,4,15.6,30,0,55.4228,-9.85939999999999,30,36
193,2013-07-23 16:06:14,1374595574,55.44029,-9.84685,4,4,2013-07-23 16:00:00,1374595200,16.92,3,15.6,30,60,55.4228,-9.85939999999999,30,36
194,2013-07-23 17:06:15,1374599175,55.46067,-9.84685,2,6,2013-07-23 17:00:00,1374598800,17.05,3,15.6,30,120,55.4228,-9.85939999999999,30,36
195,2013-07-23 18:06:13,1374602773,55.65701,-13.28057,234,6,2013-07-23 18:00:00,1374602400,16.95,3,15.6,30,0,55.4386,-9.827,30,36
196,2013-07-23 19:06:13,1374606373,55.41618,-9.77382,6,6,2013-07-23 19:00:00,1374606000,16.89,2,15.6,30,60,55.4386,-9.827,30,36
197,2013-07-23 20:06:12,1374609972,55.5875,-12.60453,190,9,2013-07-23 20:00:00,1374609600,16.7,3,15.6,30,120,55.4386,-9.827,30,36
198,2013-07-23 21:06:20,1374613580,55.44029,-9.84685,1,3,2013-07-23 21:00:00,1374613200,16.62,4,15.6,30,0,55.4384,-9.80619999999999,34,32
199,2013-07-23 22:06:12,1374617172,55.56152,-12.26747,181,7,2013-07-23 22:00:00,1374616800,16.51,4,15.6,30,60,55.4384,-9.80619999999999,34,32
200,2013-07-23 23:06:10,1374620770,55.41618,-9.77382,2,8,2013-07-23 23:00:00,1374620400,16.59,5,15.6,30,120,55.4384,-9.80619999999999,34,32
201,2013-07-24 00:06:13,1374624373,55.41114,-9.83605,2,2,2013-07-24 00:00:00,1374624000,16.6,5,15.6,30,0,55.4294,-9.81780000000001,56,36
202,2013-07-24 01:08:04,1374628084,55.22215,-13.97523,275,6,2013-07-24 01:00:00,1374627600,16.57,5,15.6,30,60,55.4294,-9.81780000000001,56,36
203,2013-07-24 02:06:18,1374631578,55.41618,-9.77382,2,1,2013-07-24 02:00:00,1374631200,16.58,4,15.6,125,120,55.4294,-9.81780000000001,56,36
204,2013-07-24 03:06:13,1374635173,55.36467,-11.49552,126,5,2013-07-24 03:00:00,1374634800,16.5,4,15.6,30,0,55.4336,-9.83879999999999,62,32
205,2013-07-24 04:06:16,1374638776,55.40607,-9.89826,2,4,2013-07-24 04:00:00,1374638400,16.65,5,15.6,30,60,55.4336,-9.83879999999999,62,32
206,2013-07-24 05:06:31,1374642391,55.44029,-9.84685,3,2,2013-07-24 05:00:00,1374642000,16.6,4,15.6,30,120,55.4336,-9.83879999999999,62,32
207,2013-07-24 06:06:13,1374645973,55.46571,-9.78456,2,1,2013-07-24 06:00:00,1374645600,16.54,3,15.6,33,0,55.454,-9.8098,32,36
208,2013-07-24 07:06:13,1374649573,55.53477,-8.32718,114,2,2013-07-24 07:00:00,1374649200,16.55,4,15.6,30,60,55.454,-9.8098,32,36
209,2013-07-24 08:06:28,1374653188,55.46067,-9.84685,3,4,2013-07-24 08:00:00,1374652800,16.52,5,15.6,30,120,55.454,-9.8098,32,36
210,2013-07-24 09:06:51,1374656811,55.56231,-7.43961,158,0,2013-07-24 09:00:00,1374656400,16.44,5,15.6,34,0,55.4544,-9.77179999999998,176,36
211,2013-07-24 10:06:22,1374660382,55.46571,-9.78456,5,0,2013-07-24 10:00:00,1374660000,16.3,5,15.6,49,60,55.4544,-9.77179999999998,176,36
212,2013-07-24 11:10:20,1374664220,55.41114,-9.83605,4,2,2013-07-24 11:00:00,1374663600,16.28,5,15.6,30,120,55.4544,-9.77179999999998,176,36
213,2013-07-24 12:06:45,1374667605,55.46067,-9.84685,3,4,2013-07-24 12:00:00,1374667200,16.27,5,15.6,255,0,55.4382,-9.7946,152,32
214,2013-07-24 13:06:15,1374671175,55.41114,-9.83605,6,2,2013-07-24 13:00:00,1374670800,16.28,6,15.6,46,60,55.4382,-9.7946,152,32
215,2013-07-24 14:06:12,1374674772,55.44534,-9.78456,2,4,2013-07-24 14:00:00,1374674400,16.28,6,15.6,30,120,55.4382,-9.7946,152,32
216,2013-07-24 15:06:31,1374678391,55.43522,-9.90912,2,3,2013-07-24 15:00:00,1374678000,16.31,5,15.6,30,0,55.4436,-9.8304,92,32
217,2013-07-24 16:06:45,1374682005,55.43522,-9.90912,15,10,2013-07-24 16:00:00,1374681600,16.33,5,15.6,30,60,55.4436,-9.8304,92,32
218,2013-07-24 17:06:20,1374685580,55.49488,-9.79531,12,4,2013-07-24 17:00:00,1374685200,16.37,4,15.6,48,120,55.4436,-9.8304,92,32
219,2013-07-24 18:06:46,1374689206,55.46571,-9.78456,3,4,2013-07-24 18:00:00,1374688800,16.44,3,15.6,30,0,55.4696,-9.8158,56,36
220,2013-07-24 19:06:23,1374692783,55.46067,-9.84685,2,3,2013-07-24 19:00:00,1374692400,16.48,4,15.6,44,60,55.4696,-9.8158,56,36
221,2013-07-24 20:06:14,1374696374,55.49488,-9.79531,10,3,2013-07-24 20:00:00,1374696000,16.43,3,15.6,30,120,55.4696,-9.8158,56,36
222,2013-07-24 21:06:29,1374699989,55.49488,-9.79531,4,3,2013-07-24 21:00:00,1374699600,16.45,4,15.6,30,0,55.4772,-9.768,34,36
223,2013-07-24 22:06:13,1374703573,55.46571,-9.78456,2,4,2013-07-24 22:00:00,1374703200,16.39,5,15.6,30,60,55.4772,-9.768,34,36
224,2013-07-24 23:06:12,1374707172,55.47073,-9.72224,3,6,2013-07-24 23:00:00,1374706800,16.4,5,15.6,30,120,55.4772,-9.768,34,36
225,2013-07-25 00:06:13,1374710773,55.47073,-9.72224,2,3,2013-07-25 00:00:00,1374710400,16.41,4,15.6,30,0,55.4558,-9.76499999999999,90,36
226,2013-07-25 01:06:23,1374714383,55.37023,-14.35787,299,1,2013-07-25 01:00:00,1374714000,16.39,5,15.6,30,60,55.4558,-9.76499999999999,90,36
227,2013-07-25 02:06:14,1374717974,55.44029,-9.84685,2,3,2013-07-25 02:00:00,1374717600,16.35,4,15.6,30,120,55.4558,-9.76499999999999,90,36